Regional Weather Roundup
Issued by NWS

Home | Current Version | Previous Version | Graphics & Text | Print | Product List | Glossary Off
Versions: 1 2 3 4 5 6 7 8 9 10 11 12 13 14 15 16 17 18 19 20 21 22 23 24 25 26 27 28 29 30 31 32 33 34 35 36 37 38 39 40 41 42 43 44 45 46 47 48 49 50

000
ASUS43 KDTX 262301
RWRMI
MICHIGAN HOURLY REGIONAL WEATHER ROUNDUP
NATIONAL WEATHER SERVICE DETROIT/PONTIAC MI
700 PM EDT SUN MAR 26 2017

NOTE: "FAIR" INDICATES FEW OR NO CLOUDS BELOW 12,000 FEET WITH NO
SIGNIFICANT WEATHER AND/OR OBSTRUCTION TO VISIBILITY.

MIZ047>049-052>055-059>063-066>070-074>076-081>083-270000-
SOUTHEAST LOWER MICHIGAN

CITY           SKY/WX    TMP DP  RH WIND       PRES   REMARKS
ADRIAN         CLOUDY    52  50  93 E6        29.89R FOG
ALMA           CLOUDY    49  49  98 E6        29.86F FOG
ANN ARBOR      LGT RAIN  50  50 100 E3        29.89R FOG
BAD AXE        CLOUDY    46  46  97 SE9       29.89S FOG
CARO           CLOUDY    50  49  97 SE5       29.87S FOG
DETROIT CITY   CLOUDY    48  48 100 E3        29.90S FOG
DETROIT        LGT RAIN  51  50  96 VRB5      29.90S FOG
FLINT          CLOUDY    51  50  96 S7        29.88S
GROSSE ILE     CLOUDY    50  49  97 CALM      29.88S FOG
HILLSDALE      CLOUDY    52  52 100 SE5       29.86S FOG
HOWELL         RAIN      51  49  91 SE6       29.87S

CITY           SKY/WX    TMP DP  RH WIND       PRES   REMARKS
JACKSON        CLOUDY    55  51  86 SE8       29.87R
LAMBERTVILLE   LGT RAIN  49  47  92 SE5       29.89R
LANSING        CLOUDY    54  50  86 SE8       29.86S
LAPEER         DRIZZLE   49  49  97 S5        29.89R
MASON          CLOUDY    53  51  94 SE6       29.87S
MONROE         DRIZZLE   48  48 100 CALM      29.88R
MT. CLEMENS    LGT RAIN  46  46 100 SE3       29.88S FOG
PONTIAC        LGT RAIN  48  46  93 SE3       29.88S FOG
PORT HOPE        N/A     42  42 100 SE8       29.87F
PORT HURON     LGT RAIN  48  46  93 E5        29.90F
TRI CITIES     CLOUDY    44  43  96 CALM      29.89R FOG
MIDLAND        CLOUDY    45  43  93 CALM      29.87S FOG
TROY           CLOUDY    48  46  91 NE3       29.91S FOG
SAGINAW HB     CLOUDY    50  46  87 CALM      29.87S
$$
MIZ043>046-050>051-056>058-064>065-071>073-077>080-270000-
SOUTHWEST LOWER MICHIGAN

CITY           SKY/WX    TMP DP  RH WIND       PRES   REMARKS
BATTLE CREEK   RAIN      54  53  97 SE5       29.85S FOG
BENTON HARBOR  CLOUDY    57  53  86 CALM      29.82F
BIG RAPIDS     CLOUDY    45  43  93 SE6       29.85R FOG
COLDWATER      LGT RAIN  55  54  95 S5        29.85S
FREMONT        CLOUDY    47  47 100 E5        29.83S FOG
HOLLAND        LGT RAIN  56  54  93 SE3       29.83S
GRAND RAPIDS   CLOUDY    53  53 100 E5        29.83F FOG
IONIA          DRIZZLE   51  50  97 E5        29.84S
KALAMAZOO      LGT RAIN  56  52  86 SE5       29.85S FOG
LUDINGTON      CLOUDY    47  47 100 SE7       29.83R FOG
MARSHALL       CLOUDY    56  54  95 SE3       29.85S
MOUNT PLEASANT CLOUDY    44  43  97 NE3       29.86S FOG
MUSKEGON       CLOUDY    51  50  96 SE7       29.83S FOG
SOUTH HAVEN    CLOUDY    57  55  94 S3        29.82S
$$
MIZ016>042-270000-
NORTHERN LOWER MICHIGAN

CITY           SKY/WX    TMP DP  RH WIND       PRES   REMARKS
ALPENA         LGT RAIN  37  37 100 SE7       29.91S FOG     WCI  32
BEAVER ISLAND  DRZL/FOG  34  34 100 E6        29.87F VSB 3/4 WCI  29
BELLAIRE       CLOUDY    44  42  92 CALM      29.86S
CADILLAC       CLOUDY    43  42  97 SE5       29.84R FOG
CHARLEVOIX     CLOUDY    41  41 100 E5        29.88F
FRANKFORT      DRIZZLE   47  44  91 SE3       29.84S
GAYLORD        CLOUDY    43  38  82 SE5       29.85S
GRAYLING       CLOUDY    41  41 100 E5        29.87R FOG
HARBOR SPRINGS RAIN      38  38  99 NE8       29.87F WCI  32
HOUGHTON LAKE  CLOUDY    41  40  96 SE5       29.87R FOG
MANISTEE       CLOUDY    46  45  96 E5        29.83S
OSCODA         MIX PCPN  38  37  95 CALM      29.90S
PELLSTON       LGT RAIN  37  35  92 E9        29.89S FOG     WCI  30
ROGERS CITY    MIX PCPN  37  35  94 E8        29.90F WCI  30
TRAVERSE CITY  CLOUDY    46  42  86 CALM      29.84S
$$
MIZ007>008-015-270000-
EASTERN UPPER MICHIGAN

CITY           SKY/WX    TMP DP  RH WIND       PRES   REMARKS
KINROSS        MIX PCPN  32  32 100 E9        29.91S WCI  24
MACKINAC ISLAN LGT SNOW  33  33 100 E12G18    29.91R WCI  25
NEWBERRY       FOG       33  32  96 E7        29.89F VSB 3/4 WCI  27
S. S. MARIE    LGT RAIN  34  32  92 E7        29.91F WCI  28
MUNISING         N/A     36  35  96 S5        29.90R WCI  32
$$
MIZ004>006-011>014-085-270000-
CENTRAL UPPER MICHIGAN

CITY           SKY/WX    TMP DP  RH WIND       PRES   REMARKS
ESCANABA       MIX PCPN  36  35  96 N6        29.89S FOG     WCI  31
MENOMINEE        N/A    N/A N/A N/A MISG        N/A
SAWYER-GWINN   CLOUDY    32  32 100 NE3       29.89R FOG
$$
MIZ001>003-009>011-084-270000-
WESTERN UPPER MICHIGAN

CITY           SKY/WX    TMP DP  RH WIND       PRES   REMARKS
IRON MOUNTAIN  LGT RAIN  37  34  89 CALM      29.86S FOG
HOUGHTON       CLOUDY    34  31  88 N5        29.89R FOG     WCI  30
COPPER HARBOR    N/A     34  34 100 E5        29.91S WCI  30
IRONWOOD       CLOUDY    33  31  92 N6        29.91S FOG     WCI  28
$$

ABBREVIATIONS USED IN REMARKS
   TC - TEMPERATURE IN CELSIUS
  WCI - WIND CHILL INDEX
   HX - HEAT INDEX
  VSB - VISIBILITY




USA.gov is the U.S. government's official web portal to all federal, state and local government web resources and services.